• In Deutschland
  • Länderverzeichnis
  • Für 7 Tage
  • Wassertemperatur
  • Satellitenkarten
  • Wetterkarte
  • Widgets
  • user-avatar
    Anmelden

    Stündliche Wetter Netphen

    Heute, 18 August, Samstag

    Zeit Temperatur Niederschläge Wind Luftdruck Luftfeuchtigkeit
    00:00 +14°C° 0 mm 1 m/S 730 mmHg 85%
    01:00 +14°C° 0 mm 1 m/S 731 mmHg 85%
    02:00 +13°C° 0 mm 1 m/S 731 mmHg 86%
    03:00 +13°C° 0 mm 1 m/S 731 mmHg 87%
    04:00 +12°C° 0 mm 1 m/S 731 mmHg 87%
    05:00 +13°C° 0 mm 1 m/S 731 mmHg 84%
    06:00 +14°C° 0 mm 1 m/S 731 mmHg 81%
    07:00 +15°C° 0 mm 1 m/S 731 mmHg 78%
    08:00 +18°C° 0 mm 1 m/S 732 mmHg 69%
    09:00 +20°C° 0 mm 1 m/S 732 mmHg 60%
    10:00 +22°C° 0 mm 1 m/S 733 mmHg 50%
    11:00 +23°C° 0 mm 1 m/S 732 mmHg 46%
    12:00 +24°C° 0 mm 1 m/S 732 mmHg 41%
    13:00 +25°C° 0 mm 1 m/S 732 mmHg 37%
    14:00 +25°C° 0 mm 2 m/S 732 mmHg 36%
    15:00 +25°C° 0 mm 2 m/S 732 mmHg 36%
    16:00 +26°C° 0 mm 2 m/S 732 mmHg 35%
    17:00 +24°C° 0 mm 2 m/S 732 mmHg 42%
    18:00 +23°C° 0 mm 1 m/S 731 mmHg 49%
    19:00 +21°C° 0 mm 1 m/S 731 mmHg 56%
    20:00 +20°C° 0 mm 1 m/S 732 mmHg 59%
    21:00 +18°C° 0 mm 1 m/S 732 mmHg 62%
    22:00 +16°C° 0 mm 1 m/S 732 mmHg 66%
    23:00 +16°C° 0 mm 1 m/S 732 mmHg 69%

    Morgen, 19 August, Sonntag

    Zeit Temperatur Niederschläge Wind Luftdruck Luftfeuchtigkeit
    00:00 +15°C° 0 mm 1 m/S 732 mmHg 73%
    01:00 +15°C° 0 mm 1 m/S 732 mmHg 77%
    02:00 +13°C° 0 mm 0 m/S 732 mmHg 80%
    03:00 +13°C° 0 mm 0 m/S 732 mmHg 83%
    04:00 +13°C° 0 mm 0 m/S 732 mmHg 86%
    05:00 +14°C° 0 mm 0 m/S 732 mmHg 84%
    06:00 +14°C° 0 mm 0 m/S 732 mmHg 82%
    07:00 +15°C° 0 mm 0 m/S 732 mmHg 80%
    08:00 +18°C° 0 mm 0 m/S 733 mmHg 71%
    09:00 +22°C° 0 mm 1 m/S 733 mmHg 62%
    10:00 +24°C° 0 mm 1 m/S 733 mmHg 54%
    11:00 +25°C° 0 mm 1 m/S 733 mmHg 50%
    12:00 +26°C° 0 mm 1 m/S 732 mmHg 47%
    13:00 +27°C° 0 mm 2 m/S 732 mmHg 43%
    14:00 +27°C° 0 mm 2 m/S 732 mmHg 43%
    15:00 +27°C° 0 mm 2 m/S 731 mmHg 43%
    16:00 +28°C° 0 mm 2 m/S 731 mmHg 43%
    17:00 +26°C° 0 mm 1 m/S 731 mmHg 49%
    18:00 +25°C° 0 mm 1 m/S 731 mmHg 56%
    19:00 +23°C° 0 mm 1 m/S 730 mmHg 63%
    20:00 +22°C° 0 mm 1 m/S 730 mmHg 67%
    21:00 +20°C° 0 mm 1 m/S 730 mmHg 71%
    22:00 +19°C° 0 mm 1 m/S 731 mmHg 75%
    23:00 +18°C° 0 mm 1 m/S 730 mmHg 77%

    übermorgen, 20 August, Montag

    Zeit Temperatur Niederschläge Wind Luftdruck Luftfeuchtigkeit
    00:00 +18°C° 0 mm 1 m/S 730 mmHg 79%
    01:00 +18°C° 0 mm 1 m/S 730 mmHg 81%
    02:00 +16°C° 0 mm 1 m/S 730 mmHg 83%
    03:00 +16°C° 0 mm 1 m/S 730 mmHg 85%
    04:00 +16°C° 0 mm 1 m/S 729 mmHg 87%
    05:00 +16°C° 0 mm 1 m/S 729 mmHg 86%
    06:00 +18°C° 0 mm 1 m/S 730 mmHg 84%
    07:00 +18°C° 0 mm 1 m/S 730 mmHg 83%
    08:00 +19°C° 0 mm 2 m/S 730 mmHg 76%
    09:00 +21°C° 0 mm 2 m/S 730 mmHg 70%
    10:00 +23°C° 0 mm 2 m/S 730 mmHg 63%
    11:00 +22°C° 0 mm 3 m/S 730 mmHg 62%
    12:00 +24°C° 0 mm 3 m/S 730 mmHg 61%
    13:00 +24°C° 0 mm 3 m/S 730 mmHg 60%
    14:00 +24°C° 0 mm 3 m/S 730 mmHg 59%
    15:00 +25°C° 0 mm 3 m/S 729 mmHg 59%
    16:00 +25°C° 0 mm 3 m/S 729 mmHg 58%
    17:00 +24°C° 0 mm 3 m/S 729 mmHg 64%
    18:00 +23°C° 0 mm 2 m/S 729 mmHg 70%
    19:00 +21°C° 0 mm 2 m/S 729 mmHg 77%
    20:00 +19°C° 0 mm 2 m/S 730 mmHg 81%
    21:00 +19°C° 0 mm 1 m/S 730 mmHg 86%
    22:00 +18°C° 0 mm 1 m/S 730 mmHg 90%
    23:00 +16°C° 0 mm 1 m/S 730 mmHg 91%

    21 August, Dienstag

    Zeit Temperatur Niederschläge Wind Luftdruck Luftfeuchtigkeit
    00:00 +16°C° 0 mm 1 m/S 730 mmHg 92%
    01:00 +15°C° 0 mm 1 m/S 730 mmHg 93%
    02:00 +15°C° 0 mm 1 m/S 730 mmHg 93%
    03:00 +15°C° 0 mm 1 m/S 730 mmHg 94%
    04:00 +15°C° 0 mm 1 m/S 730 mmHg 94%
    05:00 +15°C° 0 mm 1 m/S 730 mmHg 92%
    06:00 +16°C° 0 mm 1 m/S 730 mmHg 89%
    07:00 +16°C° 0 mm 1 m/S 731 mmHg 87%
    08:00 +20°C° 0 mm 1 m/S 731 mmHg 77%
    09:00 +22°C° 0 mm 1 m/S 731 mmHg 68%
    10:00 +24°C° 0 mm 2 m/S 731 mmHg 59%
    11:00 +25°C° 0 mm 2 m/S 731 mmHg 56%
    12:00 +26°C° 0 mm 2 m/S 731 mmHg 54%
    13:00 +27°C° 0 mm 2 m/S 731 mmHg 51%
    14:00 +27°C° 0,1 mm 2 m/S 730 mmHg 51%
    15:00 +27°C° 0,1 mm 2 m/S 730 mmHg 51%
    16:00 +27°C° 0,1 mm 2 m/S 730 mmHg 52%
    17:00 +26°C° 0,1 mm 2 m/S 730 mmHg 59%
    18:00 +25°C° 0,1 mm 2 m/S 729 mmHg 66%
    19:00 +23°C° 0,1 mm 1 m/S 729 mmHg 73%
    20:00 +22°C° 0 mm 1 m/S 729 mmHg 78%
    21:00 +21°C° 0 mm 1 m/S 730 mmHg 82%
    22:00 +19°C° 0 mm 1 m/S 730 mmHg 87%
    23:00 +19°C° 0 mm 1 m/S 730 mmHg 88%

    22 August, Mittwoch

    Zeit Temperatur Niederschläge Wind Luftdruck Luftfeuchtigkeit
    00:00 +19°C° 0 mm 1 m/S 730 mmHg 89%
    01:00 +18°C° 0 mm 1 m/S 730 mmHg 90%
    02:00 +18°C° 0 mm 1 m/S 730 mmHg 91%
    03:00 +18°C° 0 mm 1 m/S 729 mmHg 92%
    04:00 +16°C° 0 mm 1 m/S 729 mmHg 93%
    05:00 +18°C° 0 mm 1 m/S 730 mmHg 91%
    06:00 +18°C° 0 mm 1 m/S 730 mmHg 90%
    07:00 +19°C° 0 mm 1 m/S 730 mmHg 88%
    08:00 +20°C° 0 mm 1 m/S 730 mmHg 81%
    09:00 +21°C° 0 mm 2 m/S 731 mmHg 73%
    10:00 +23°C° 0 mm 2 m/S 731 mmHg 66%
    11:00 +24°C° 0,1 mm 3 m/S 731 mmHg 62%
    12:00 +25°C° 0,1 mm 3 m/S 731 mmHg 58%
    13:00 +25°C° 0,1 mm 3 m/S 731 mmHg 54%
    14:00 +26°C° 0 mm 3 m/S 731 mmHg 51%
    15:00 +26°C° 0 mm 3 m/S 730 mmHg 49%
    16:00 +26°C° 0 mm 3 m/S 730 mmHg 46%
    17:00 +25°C° 0 mm 3 m/S 730 mmHg 52%
    18:00 +23°C° 0 mm 2 m/S 730 mmHg 57%
    19:00 +21°C° 0 mm 2 m/S 730 mmHg 63%
    20:00 +19°C° 0 mm 2 m/S 730 mmHg 66%
    21:00 +19°C° 0 mm 1 m/S 731 mmHg 69%
    22:00 +16°C° 0 mm 1 m/S 731 mmHg 73%
    23:00 +16°C° 0 mm 1 m/S 731 mmHg 74%

    23 August, Donnerstag

    Zeit Temperatur Niederschläge Wind Luftdruck Luftfeuchtigkeit
    00:00 +15°C° 0 mm 1 m/S 731 mmHg 76%
    01:00 +15°C° 0 mm 1 m/S 731 mmHg 77%
    02:00 +14°C° 0 mm 1 m/S 730 mmHg 79%
    03:00 +14°C° 0 mm 1 m/S 730 mmHg 80%
    04:00 +14°C° 0 mm 1 m/S 730 mmHg 82%
    05:00 +15°C° 0 mm 1 m/S 730 mmHg 79%
    06:00 +15°C° 0 mm 1 m/S 730 mmHg 77%
    07:00 +16°C° 0 mm 1 m/S 730 mmHg 74%
    08:00 +19°C° 0 mm 1 m/S 730 mmHg 66%
    09:00 +22°C° 0 mm 1 m/S 730 mmHg 58%
    10:00 +24°C° 0 mm 1 m/S 730 mmHg 50%
    11:00 +25°C° 0 mm 1 m/S 730 mmHg 47%
    12:00 +26°C° 0 mm 1 m/S 729 mmHg 44%
    13:00 +28°C° 0 mm 1 m/S 729 mmHg 41%
    14:00 +28°C° 0 mm 1 m/S 728 mmHg 41%
    15:00 +28°C° 0 mm 1 m/S 728 mmHg 42%
    16:00 +27°C° 0 mm 1 m/S 727 mmHg 42%
    17:00 +26°C° 0 mm 1 m/S 727 mmHg 48%
    18:00 +25°C° 0 mm 1 m/S 727 mmHg 53%
    19:00 +23°C° 0 mm 1 m/S 726 mmHg 58%
    20:00 +22°C° 0 mm 1 m/S 726 mmHg 61%
    21:00 +21°C° 0 mm 1 m/S 726 mmHg 63%
    22:00 +19°C° 0 mm 2 m/S 726 mmHg 65%
    23:00 +20°C° 0 mm 1 m/S 726 mmHg 68%
    Mehr zeigen